Tracking 30970 objects as of 3-Jul-2025
HD Live streaming from Space Station
objects crossing your sky now

FENGYUN 1C DEB

Track FENGYUN 1C DEB now!
10-day predictions


NORAD ID: 30575
Int'l Code: 1999-025ALR
Perigee: 730.4 km
Apogee: 807.9 km
Inclination: 99.2 °
Period: 100.1 minutes
Semi major axis: 7140 km
RCS: 0.029 m2 (small)
Launch date: May 10, 1999
Source: People's Republic of China (PRC)
Launch site: Taiyaun Space Center, China (TSC)

Note: This is SATELLITE DEBRIS
Your satellite tracking list
GLOBAL-2
Track 1 satellite(s)




NASA's NSSDC Master Catalog

Two Line Element Set (TLE):
1 30575U 99025ALR 25183.78780832  .00001479  00000-0  48758-3 0  9993
2 30575  99.1763 263.3729 0054317 356.6087 129.8747 14.38935201958730
Source of the keplerian elements: AFSPC